Location: Fours
(44.3167°N, 6.7000°E)
Time: 09:25:52
(UTC+00:00)

ISS - Pass Details

Date: 28 September 2021
Orbit: 417 x 423 km, 51.6° (Epoch: 27 October)

Event Time Altitude Azimuth Distance (km) Brightness Sun altitude
Rises 19:00:46 0° 301° (WNW) 2,367 1.5 -18.8°
Reaches altitude 10° 19:03:01 10° 311° (NW) 1,502 0.0 -19.2°
Maximum altitude 19:06:05 32° 17° (NNE) 754 -2.5 -19.7°
Enters shadow 19:06:11 31° 21° (NNE) 755 -2.6 -19.7°
